Location: Titusville
(28.6119°N, 80.8078°W)
Time: 02:53:51
(UTC-05:00)

ISS - Visible Passes

Search period start: 18 February 2019 00:00
Search period end: 28 February 2019 00:00
Orbit: 403 x 411 km, 51.6° (Epoch: 18 February)

Date Brightness Start Highest point End Pass type
(mag) Time Alt. Az. Time Alt. Az. Time Alt. Az.
20 Feb -1.2 06:02:49 10° S 06:05:23 22° SE 06:07:58 10° ENE visible
22 Feb -3.8 05:55:47 12° SW 05:58:48 78° SE 06:02:03 10° NE visible
23 Feb -2.1 05:07:31 31° ESE 05:07:31 31° ESE 05:10:19 10° ENE visible
24 Feb -2.9 05:51:42 28° WNW 05:52:19 30° NW 05:55:15 10° NNE visible
25 Feb -1.5 05:02:52 20° NE 05:02:52 20° NE 05:04:00 10° NE visible
26 Feb -1.5 05:46:35 12° NNW 05:46:35 12° NNW 05:47:26 10° N visible
